Cedar Creek Observed Data For Previous 48 Hours

Caption
Day and Hour Reservoir Elevation (behind dam)* Tailwater Elevation (below dam)* Average Hourly Discharge*
1/15/2018 1 AM CST 565.95 499.66 185
1/15/2018 2 AM CST 565.95 499.68 185
1/15/2018 3 AM CST 565.95 499.66 185
1/15/2018 4 AM CST 565.96 499.68 185
1/15/2018 5 AM CST 565.96 499.68 185
1/15/2018 6 AM CST 565.96 499.68 185
1/15/2018 7 AM CST 565.96 499.68 185
1/15/2018 8 AM CST 565.96 499.53 185
1/15/2018 9 AM CST 565.96 498.91 12
1/15/2018 10 AM CST 565.96 498.80 12
1/15/2018 11 AM CST 565.97 498.80 12
1/15/2018 12 PM CST 565.98 498.78 12
1/15/2018 1 PM CST 565.99 498.78 12
1/15/2018 2 PM CST 565.99 498.78 12
1/15/2018 3 PM CST 566.00 498.78 12
1/15/2018 4 PM CST 566.00 498.77 12
1/15/2018 5 PM CST 566.01 498.76 12
1/15/2018 6 PM CST 566.01 498.77 12
1/15/2018 7 PM CST 566.02 498.78 12
1/15/2018 8 PM CST 566.04 498.78 12
1/15/2018 9 PM CST 566.02 498.76 12
1/15/2018 10 PM CST 566.03 498.78 12
1/15/2018 11 PM CST 566.04 498.78 12
1/16/2018 12 AM CST 566.05 498.78 12
1/16/2018 1 AM CST 566.05 498.77 12
1/16/2018 2 AM CST 566.06 498.77 12
1/16/2018 3 AM CST 566.06 498.76 12
1/16/2018 4 AM CST 566.07 498.77 12
1/16/2018 5 AM CST 566.07 498.76 12
1/16/2018 6 AM CST 566.07 498.77 12
1/16/2018 7 AM CST 566.08 498.76 12
1/16/2018 8 AM CST 566.08 498.77 12
1/16/2018 9 AM CST 566.09 498.77 12
1/16/2018 10 AM CST 566.10 498.77 12
1/16/2018 11 AM CST 566.11 498.76 12
1/16/2018 12 PM CST 566.11 498.77 12
1/16/2018 1 PM CST 566.12 498.77 12
1/16/2018 2 PM CST 566.13 498.77 12
1/16/2018 3 PM CST 566.13 498.76 12
1/16/2018 4 PM CST 566.14 498.76 12
1/16/2018 5 PM CST 566.14 498.77 12
1/16/2018 6 PM CST 566.14 498.76 12
1/16/2018 7 PM CST 566.15 498.77 12
1/16/2018 8 PM CST 566.16 498.77 12
1/16/2018 9 PM CST 566.15 498.77 12
1/16/2018 10 PM CST 566.16 498.75 12
1/16/2018 11 PM CST 566.17 498.76 12
1/17/2018 12 AM CST 566.17 498.77 12
1/17/2018 1 AM CST 566.18 498.75 12
1/17/2018 2 AM CST 566.18 498.75 12
1/17/2018 3 AM CST 566.19 498.75 12
1/17/2018 4 AM CST 566.19 498.76 12
1/17/2018 5 AM CST 566.20 498.75 12
1/17/2018 6 AM CST 566.20 498.75 12
1/17/2018 7 AM CST 566.20 498.75 12
1/17/2018 8 AM CST 566.19 498.77 12
1/17/2018 9 AM CST 566.22 498.76 12
1/17/2018 10 AM CST 566.22 498.74 12
1/17/2018 11 AM CST 566.22 498.75 12
1/17/2018 12 PM CST 566.22 498.76 12
1/17/2018 1 PM CST 566.23 498.76 12
1/17/2018 2 PM CST 566.22 498.76 12
1/17/2018 3 PM CST 566.23 498.76 12
1/17/2018 4 PM CST 566.24 498.76 12
1/17/2018 5 PM CST 566.24 498.76 12
1/17/2018 6 PM CST 566.25 498.75 12
1/17/2018 7 PM CST 566.25 498.75 12
1/17/2018 8 PM CST 566.26 498.76 12

Elevations are in feet above sea level. Discharges are in cubic feet per second and are reported at the end of the hour.